Total_Precipitation_Accumulation
0.79 0.98 1.26 1.65 2.10 2.67 3.13 3.15 2.53 2.03 1.72 1.44 1.08 0.91 0.89 0.80 0.71 0.69 0.64 0.61 0.56 0.52 0.47 0.41 0.40 0.37 0.36 0.38 0.40 0.47 0.55 0.59 0.66 0.74 0.71 0.64 0.59 0.58 0.56 0.53 0.50 0.50 0.61
1.05 1.26 1.53 1.66 1.56 1.67 1.76 1.38 1.11 0.93 0.79 0.68 0.52 0.42 0.38 0.36 0.34 0.35 0.35 0.33 0.37 0.40 0.39 0.37 0.36 0.35 0.34 0.33 0.36 0.41 0.44 0.47 0.54 0.60 0.58 0.52 0.50 0.52 0.45 0.50 0.49 0.48 0.62
1.49 1.62 1.40 1.17 1.07 1.04 0.90 0.62 0.48 0.48 0.43 0.34 0.26 0.23 0.21 0.21 0.21 0.22 0.22 0.22 0.23 0.26 0.29 0.33 0.36 0.35 0.31 0.30 0.32 0.34 0.35 0.35 0.38 0.47 0.52 0.47 0.42 0.38 0.38 0.43 0.46 0.50 0.58
1.65 1.44 0.77 0.48 0.46 0.47 0.48 0.52 0.53 0.43 0.32 0.27 0.20 0.15 0.13 0.13 0.13 0.15 0.15 0.17 0.16 0.16 0.18 0.24 0.29 0.30 0.31 0.31 0.25 0.25 0.31 0.31 0.28 0.31 0.39 0.37 0.38 0.42 0.40 0.39 0.45 0.52 0.51
0.84 0.48 0.19 0.13 0.18 0.28 0.47 0.68 0.70 0.49 0.33 0.28 0.24 0.22 0.20 0.18 0.17 0.17 0.18 0.20 0.20 0.20 0.17 0.17 0.22 0.27 0.33 0.38 0.34 0.32 0.30 0.29 0.26 0.26 0.33 0.34 0.30 0.35 0.41 0.39 0.40 0.44 0.38
0.32 0.16 0.10 0.14 0.21 0.26 0.33 0.43 0.52 0.59 0.52 0.47 0.37 0.34 0.33 0.31 0.28 0.26 0.25 0.25 0.26 0.28 0.27 0.27 0.30 0.33 0.33 0.34 0.36 0.39 0.38 0.36 0.33 0.26 0.29 0.42 0.39 0.29 0.34 0.35 0.38 0.39 0.28
0.16 0.18 0.19 0.22 0.19 0.16 0.15 0.16 0.20 0.31 0.37 0.40 0.42 0.42 0.41 0.37 0.32 0.28 0.24 0.27 0.25 0.27 0.29 0.29 0.33 0.37 0.37 0.34 0.32 0.33 0.38 0.45 0.45 0.35 0.27 0.30 0.42 0.37 0.31 0.31 0.30 0.33 0.33
0.05 0.07 0.09 0.08 0.07 0.07 0.07 0.07 0.07 0.09 0.12 0.14 0.18 0.22 0.28 0.27 0.26 0.30 0.24 0.25 0.29 0.29 0.27 0.25 0.25 0.28 0.31 0.32 0.30 0.26 0.27 0.34 0.43 0.45 0.46 0.41 0.35 0.42 0.37 0.31 0.33 0.38 0.43
0.01 0.01 0.02 0.03 0.04 0.03 0.04 0.04 0.04 0.04 0.04 0.05 0.05 0.06 0.11 0.15 0.16 0.17 0.16 0.17 0.24 0.26 0.24 0.22 0.20 0.20 0.23 0.26 0.27 0.26 0.27 0.27 0.28 0.36 0.49 0.51 0.41 0.38 0.39 0.38 0.42 0.56 0.54
0.01 0.00 0.01 0.01 0.01 0.02 0.02 0.03 0.04 0.03 0.03 0.02 0.02 0.02 0.04 0.08 0.10 0.11 0.12 0.15 0.18 0.21 0.20 0.17 0.14 0.14 0.15 0.17 0.22 0.25 0.28 0.33 0.36 0.37 0.43 0.54 0.58 0.51 0.48 0.48 0.53 0.65 0.66
0.00 0.01 0.00 0.00 0.01 0.01 0.01 0.02 0.02 0.02 0.02 0.02 0.01 0.01 0.01 0.02 0.06 0.11 0.15 0.18 0.20 0.20 0.19 0.17 0.15 0.12 0.12 0.15 0.18 0.21 0.27 0.33 0.42 0.51 0.51 0.50 0.61 0.69 0.65 0.63 0.63 0.68 0.74
0.00 0.00 0.00 0.00 0.01 0.01 0.01 0.01 0.01 0.01 0.01 0.00 0.00 0.00 0.00 0.00 0.01 0.03 0.08 0.14 0.20 0.21 0.21 0.20 0.17 0.12 0.10 0.12 0.14 0.16 0.20 0.29 0.39 0.54 0.71 0.71 0.66 0.65 0.64 0.63 0.64 0.70 0.81
0.00 0.00 0.00 0.00 0.00 0.00 0.00 0.00 0.00 0.00 0.00 0.00 0.00 0.00 0.00 0.01 0.01 0.01 0.01 0.04 0.10 0.16 0.19 0.19 0.18 0.16 0.14 0.13 0.11 0.12 0.15 0.19 0.25 0.38 0.61 0.79 0.93 0.85 0.67 0.58 0.56 0.63 0.78
0.00 0.00 0.00 0.00 0.00 0.00 0.00 0.00 0.00 0.00 0.00 0.00 0.00 0.00 0.01 0.02 0.03 0.03 0.03 0.03 0.04 0.09 0.14 0.18 0.20 0.18 0.16 0.14 0.13 0.14 0.15 0.16 0.19 0.26 0.36 0.49 0.69 0.86 0.91 0.77 0.64 0.64 0.71
0.00 0.00 0.00 0.00 0.00 0.00 0.00 0.00 0.00 0.00 0.00 0.01 0.01 0.01 0.01 0.02 0.03 0.04 0.05 0.06 0.07 0.08 0.13 0.19 0.21 0.20 0.18 0.13 0.14 0.17 0.15 0.17 0.17 0.20 0.25 0.28 0.36 0.48 0.64 0.76 0.81 0.78 0.72
0.00 0.00 0.00 0.00 0.00 0.00 0.00 0.00 0.00 0.00 0.01 0.01 0.02 0.02 0.03 0.04 0.05 0.05 0.06 0.07 0.09 0.12 0.15 0.19 0.24 0.24 0.17 0.12 0.11 0.13 0.17 0.21 0.25 0.26 0.26 0.23 0.22 0.25 0.35 0.47 0.60 0.75 0.79
0.00 0.00 0.00 0.00 0.00 0.00 0.00 0.01 0.01 0.01 0.01 0.01 0.02 0.02 0.04 0.06 0.07 0.07 0.09 0.11 0.14 0.17 0.18 0.20 0.27 0.31 0.31 0.21 0.13 0.10 0.15 0.21 0.26 0.32 0.35 0.24 0.15 0.19 0.24 0.31 0.38 0.46 0.57
0.00 0.00 0.00 0.00 0.00 0.00 0.00 0.01 0.01 0.01 0.02 0.02 0.02 0.04 0.06 0.08 0.09 0.12 0.15 0.18 0.21 0.21 0.22 0.22 0.27 0.37 0.37 0.30 0.21 0.14 0.16 0.23 0.27 0.32 0.35 0.33 0.27 0.25 0.27 0.30 0.30 0.32 0.36
0.00 0.00 0.00 0.00 0.00 0.00 0.01 0.01 0.02 0.02 0.02 0.03 0.05 0.07 0.09 0.13 0.16 0.18 0.22 0.25 0.27 0.25 0.24 0.23 0.27 0.36 0.42 0.35 0.25 0.21 0.23 0.26 0.29 0.32 0.36 0.39 0.36 0.27 0.20 0.25 0.26 0.27 0.29
0.00 0.00 0.00 0.00 0.00 0.02 0.03 0.03 0.04 0.05 0.06 0.07 0.08 0.10 0.14 0.19 0.23 0.27 0.31 0.33 0.34 0.30 0.26 0.22 0.26 0.32 0.44 0.42 0.28 0.24 0.26 0.30 0.34 0.45 0.49 0.44 0.39 0.32 0.20 0.22 0.26 0.25 0.25
0.00 0.00 0.00 0.00 0.01 0.03 0.06 0.08 0.09 0.10 0.10 0.11 0.11 0.13 0.17 0.22 0.24 0.28 0.31 0.34 0.34 0.33 0.32 0.29 0.28 0.31 0.37 0.42 0.31 0.26 0.30 0.36 0.44 0.53 0.63 0.60 0.46 0.33 0.24 0.22 0.24 0.22 0.26
0.00 0.00 0.00 0.01 0.02 0.05 0.09 0.12 0.13 0.11 0.11 0.12 0.13 0.15 0.16 0.17 0.17 0.25 0.28 0.33 0.36 0.36 0.33 0.33 0.32 0.34 0.31 0.30 0.32 0.23 0.22 0.31 0.45 0.58 0.75 0.79 0.64 0.47 0.34 0.27 0.24 0.21 0.22
0.00 0.00 0.01 0.02 0.04 0.06 0.11 0.13 0.12 0.12 0.12 0.13 0.14 0.15 0.15 0.17 0.22 0.29 0.31 0.33 0.36 0.35 0.30 0.28 0.32 0.36 0.36 0.30 0.24 0.19 0.14 0.19 0.38 0.55 0.79 0.89 0.76 0.63 0.49 0.39 0.34 0.28 0.24
0.00 0.01 0.02 0.05 0.06 0.07 0.08 0.10 0.11 0.14 0.17 0.18 0.18 0.18 0.19 0.21 0.26 0.35 0.38 0.40 0.39 0.34 0.28 0.26 0.31 0.34 0.36 0.34 0.34 0.32 0.23 0.22 0.35 0.43 0.57 0.72 0.78 0.72 0.66 0.56 0.44 0.36 0.32
0.02 0.03 0.06 0.09 0.09 0.08 0.07 0.08 0.13 0.20 0.27 0.27 0.25 0.24 0.25 0.27 0.29 0.33 0.37 0.33 0.34 0.26 0.23 0.24 0.32 0.35 0.36 0.31 0.25 0.32 0.35 0.35 0.39 0.41 0.54 0.71 0.83 0.85 0.82 0.79 0.68 0.55 0.48
0.04 0.08 0.12 0.13 0.11 0.09 0.08 0.09 0.16 0.26 0.36 0.35 0.29 0.26 0.26 0.29 0.31 0.31 0.32 0.26 0.17 0.13 0.12 0.13 0.17 0.21 0.19 0.13 0.09 0.14 0.19 0.21 0.23 0.29 0.47 0.64 0.81 0.93 0.96 0.97 0.90 0.78 0.67